[[{"header":{"parameterUnit":"m.s-1","parameterCategory":1,"la1":30.2991,"la2":30.254,"lo1":-89.0895,"lo2":-89.0444,"dy":0.0017,"dx":0.0017,"nx":28,"ny":28,"refTime":"2024-03-26T03:00:00:Z","depth":0,"parameterNumber":2,"parameterNumberName":"U-component_of_WINDS"},"data":[0,0,0,0,0,0,0,0,0,0,0,0,0,0,0,0,0,0,0,0,0,0,0,0,0,0,0,0,0,0,0,0,0,0,0,0,0,0,0,0,0,0,0,0,0,0,0,0,0,0,0,0,0,0,0,0,0,0,-0.3516,-0.3517,0,-0.3555,-0.3555,-0.3555,-0.3564,-0.3564,-0.3564,-0.3563,-0.3604,-0.3605,-0.3606,0,0,0,0,0,0,0,0,0,0,0,0,0,-0.3451,-0.3452,-0.3516,-0.3517,-0.3517,-0.3554,-0.3555,-0.3556,-0.3564,-0.3564,-0.3563,-0.3563,-0.3603,-0.3605,-0.3606,0,0,0,0,0,0,0,0,0,0,0,0,0,-0.3483,-0.3453,-0.3516,-0.3526,-0.3527,-0.3554,-0.3555,-0.3556,-0.3564,-0.3564,-0.3563,-0.3563,-0.3603,-0.3605,-0.3607,-0.3627,0,0,-0.3613,-0.3614,0,0,0,0,0,0,0,0,-0.3481,-0.3486,-0.3524,-0.3525,-0.3527,-0.3554,-0.3547,-0.358,-0.3564,-0.355,-0.3563,-0.3563,-0.3588,-0.3591,-0.3599,-0.3629,-0.3631,-0.3613,-0.3614,-0.3615,-0.3616,0,0,0,0,0,0,0,-0.3479,-0.3484,-0.3531,-0.3525,-0.3526,-0.3529,-0.3533,-0.3553,-0.3571,-0.3551,-0.3552,-0.3556,-0.3588,-0.3597,-0.36,-0.3631,-0.3613,-0.3615,-0.3616,-0.3617,-0.368,-0.368,0,0,0,0,0,0,-0.3475,-0.3482,-0.353,-0.3533,-0.3503,-0.353,-0.3535,-0.3546,-0.3571,-0.3574,-0.3557,-0.3557,-0.3594,-0.3598,-0.3601,-0.3627,-0.3615,-0.3617,-0.3618,-0.3679,-0.368,-0.368,0,0,0,0,0,0,-0.3474,-0.3479,-0.3529,-0.3508,-0.3514,-0.3532,-0.3544,-0.3547,-0.3555,-0.3575,-0.3578,-0.3562,-0.3594,-0.3599,-0.3621,-0.3628,-0.3618,-0.362,-0.3679,-0.3679,-0.368,-0.3678,0,0,0,0,0,0,-0.3472,-0.3479,-0.3487,-0.3508,-0.3515,-0.3547,-0.3544,-0.3548,-0.3559,-0.3559,-0.3581,-0.3584,-0.3594,-0.3617,-0.3622,-0.3631,-0.3621,-0.3678,-0.3679,-0.368,-0.3678,-0.3679,-0.368,0,0,0,0,0,-0.3469,-0.3485,-0.3487,-0.3493,-0.3525,-0.3547,-0.3552,-0.3562,-0.3559,-0.3568,-0.358,-0.3583,-0.3626,-0.362,-0.3625,-0.3635,-0.3678,-0.3679,-0.368,-0.3677,-0.3678,-0.368,0,0,0,0,0,0,-0.3465,-0.3488,-0.3491,-0.3513,-0.3528,-0.3549,-0.356,-0.3563,-0.358,-0.358,-0.3592,-0.3597,-0.3618,-0.3628,-0.362,-0.3655,-0.3652,-0.3654,-0.3648,-0.3649,-0.365,-0.3648,-0.3623,0,0,0,0,0,-0.3467,-0.3483,-0.3502,-0.352,-0.3527,-0.3542,-0.3552,-0.3559,-0.3575,-0.3581,-0.3595,-0.3611,-0.3628,-0.3639,-0.3656,-0.3679,-0.3684,-0.3688,-0.3689,-0.369,-0.3692,-0.3704,-0.3706,-0.3684,-0.3684,-0.3684,0,0,-0.3471,-0.3485,-0.3494,-0.352,-0.3532,-0.3548,-0.3547,-0.3565,-0.3577,-0.3584,-0.3606,-0.3616,-0.3635,-0.3657,-0.3667,-0.3666,-0.3699,-0.3691,-0.3691,-0.3693,-0.3705,-0.3707,-0.3709,-0.3685,-0.3684,-0.3684,0,0,-0.3486,-0.3498,-0.3515,-0.3527,-0.3545,-0.3555,-0.3559,-0.3578,-0.3586,-0.3607,-0.3613,-0.3627,-0.3657,-0.3669,-0.368,-0.3698,-0.3702,-0.3703,-0.3709,-0.3721,-0.3723,-0.3724,-0.3731,-0.3733,-0.3705,-0.3705,-0.3705,0,-0.3489,-0.3513,-0.3523,-0.354,-0.355,-0.3557,-0.3574,-0.3585,-0.3608,-0.3616,-0.3614,-0.365,-0.3663,-0.3688,-0.3692,-0.37,-0.3705,-0.3701,-0.3721,-0.3723,-0.3725,-0.3731,-0.3734,-0.3705,-0.3705,-0.3705,-0.3705,0,-0.3515,-0.3532,-0.3543,-0.3564,-0.3576,-0.3593,-0.3605,-0.3616,-0.3622,-0.3631,-0.3653,-0.3668,-0.3688,-0.3694,-0.37,-0.372,-0.3719,-0.3719,-0.3716,-0.3727,-0.3733,-0.3736,-0.3705,-0.3705,-0.3705,-0.3705,0,0,-0.353,-0.3556,-0.356,-0.3569,-0.359,-0.3603,-0.362,-0.3638,-0.3647,-0.3663,-0.3677,-0.3701,-0.3701,-0.3713,-0.372,-0.373,-0.3744,-0.3729,-0.373,-0.3732,-0.3767,-0.3767,-0.3769,-0.3746,-0.3747,-0.3747,-0.3765,0,-0.3548,-0.3578,-0.3587,-0.3612,-0.3627,-0.3633,-0.3648,-0.3662,-0.3671,-0.3685,-0.3695,-0.3712,-0.3711,-0.3718,-0.3728,-0.374,-0.3751,-0.3739,-0.376,-0.3761,-0.3756,-0.3773,-0.3773,-0.379,-0.3768,-0.3768,-0.3768,0,-0.3573,-0.3588,-0.3615,-0.3633,-0.3639,-0.3652,-0.367,-0.3684,-0.3699,-0.3705,-0.3717,-0.3723,-0.3741,-0.3736,-0.376,-0.3751,-0.376,-0.3767,-0.3768,-0.3771,-0.3766,-0.3776,-0.3795,-0.3798,-0.3772,-0.3772,-0.3772,0,-0.3582,-0.3609,-0.3628,-0.3636,-0.3657,-0.3666,-0.3675,-0.369,-0.3701,-0.3716,-0.3723,-0.374,-0.375,-0.3763,-0.3773,-0.3768,-0.3796,-0.3792,-0.3802,-0.3802,-0.3808,-0.3808,-0.3829,-0.3813,-0.3813,-0.3813,-0.3813,0,-0.3601,-0.3617,-0.3632,-0.3644,-0.3662,-0.3672,-0.3689,-0.3699,-0.3712,-0.3726,-0.3732,-0.3744,-0.3757,-0.3771,-0.3779,-0.3798,-0.3802,-0.3808,-0.381,-0.3807,-0.3807,-0.3814,-0.3813,-0.3814,-0.3813,-0.3813,-0.3813,0,-0.3614,-0.3625,-0.3646,-0.3663,-0.3668,-0.3681,-0.3696,-0.3708,-0.3716,-0.3734,-0.3738,-0.3752,-0.377,-0.3781,-0.3803,-0.3808,-0.3829,-0.383,-0.3823,-0.3824,-0.3833,-0.3832,-0.386,-0.3864,-0.3845,-0.3846,-0.3846,0,-0.3626,-0.3639,-0.3657,-0.3667,-0.3676,-0.3691,-0.3701,-0.3711,-0.3722,-0.374,-0.3749,-0.3767,-0.3781,-0.3808,-0.3821,-0.3837,-0.384,-0.3848,-0.3842,-0.3839,-0.384,-0.3839,-0.3841,-0.3849,-0.385,-0.385,-0.385,0,-0.3646,-0.3651,-0.3665,-0.3682,-0.3694,-0.3707,-0.3721,-0.3728,-0.374,-0.3751,-0.3769,-0.378,-0.3802,-0.3819,-0.3837,-0.3846,-0.385,-0.3851,-0.3854,-0.3853,-0.3848,-0.3851,-0.3826,-0.3851,-0.3851,-0.3851,-0.3851,-0.3851,-0.366,-0.3671,-0.3685,-0.3701,-0.3712,-0.3724,-0.3736,-0.3746,-0.376,-0.3779,-0.3783,-0.3801,-0.3816,-0.384,-0.385,-0.3864,-0.3863,-0.3867,-0.3869,-0.387,-0.387,-0.3845,-0.3867,-0.3867,-0.3867,-0.3867,-0.3867,0,-0.368,-0.369,-0.3704,-0.3722,-0.3735,-0.3736,-0.3751,-0.3761,-0.3777,-0.379,-0.3804,-0.3824,-0.384,-0.3853,-0.387,-0.3879,-0.3881,-0.3883,-0.3883,-0.3885,-0.387,-0.3866,-0.3881,-0.3881,-0.3881,-0.3881,-0.3881,-0.3881,-0.3693,-0.3711,-0.3717,-0.3741,-0.375,-0.3768,-0.3776,-0.3787,-0.3798,-0.3819,-0.3832,-0.3841,-0.3854,-0.3871,-0.3886,-0.389,-0.3896,-0.3897,-0.3901,-0.3887,-0.3886,-0.3884,-0.388,-0.3898,-0.3899,-0.3915,-0.3915,-0.3915]},{"header":{"parameterUnit":"m.s-1","parameterCategory":1,"la1":30.2991,"la2":30.254,"lo1":-89.0895,"lo2":-89.0444,"dy":0.0017,"dx":0.0017,"nx":28,"ny":28,"refTime":"2024-03-26T03:00:00:Z","depth":0,"parameterNumber":3,"parameterNumberName":"V-component_of_WINDS"},"data":[0,0,0,0,0,0,0,0,0,0,0,0,0,0,0,0,0,0,0,0,0,0,0,0,0,0,0,0,0,0,0,0,0,0,0,0,0,0,0,0,0,0,0,0,0,0,0,0,0,0,0,0,0,0,0,0,0,0,-5.576,-5.576,0,-5.5805,-5.5806,-5.5806,-5.5754,-5.5752,-5.575,-5.5748,-5.579,-5.5793,-5.5796,0,0,0,0,0,0,0,0,0,0,0,0,0,-5.5624,-5.5627,-5.576,-5.576,-5.5761,-5.5805,-5.5806,-5.5807,-5.5754,-5.5751,-5.5749,-5.5747,-5.5789,-5.5793,-5.5796,0,0,0,0,0,0,0,0,0,0,0,0,0,-5.5678,-5.5628,-5.576,-5.574,-5.5739,-5.5805,-5.5806,-5.5807,-5.5754,-5.5751,-5.5748,-5.5746,-5.5788,-5.5792,-5.5797,-5.5883,0,0,-5.581,-5.5812,0,0,0,0,0,0,0,0,-5.5675,-5.5683,-5.5742,-5.5742,-5.574,-5.5771,-5.5774,-5.5832,-5.5755,-5.5748,-5.5748,-5.5744,-5.5786,-5.579,-5.5805,-5.5885,-5.5887,-5.5811,-5.5814,-5.5815,-5.5817,0,0,0,0,0,0,0,-5.5671,-5.568,-5.5778,-5.5743,-5.5742,-5.5728,-5.5732,-5.5785,-5.5783,-5.5749,-5.5745,-5.5751,-5.5785,-5.5801,-5.5806,-5.5888,-5.5811,-5.5815,-5.5817,-5.5819,-5.6043,-5.6046,0,0,0,0,0,0,-5.567,-5.5678,-5.5776,-5.5779,-5.57,-5.5733,-5.5738,-5.5764,-5.5782,-5.5782,-5.5754,-5.5749,-5.5795,-5.5801,-5.5807,-5.5911,-5.5815,-5.582,-5.5822,-5.604,-5.6044,-5.6047,0,0,0,0,0,0,-5.5667,-5.5679,-5.5774,-5.5727,-5.5739,-5.5738,-5.5768,-5.5766,-5.5783,-5.5786,-5.5785,-5.5771,-5.5793,-5.5801,-5.5866,-5.5912,-5.5822,-5.5826,-5.6036,-5.6041,-5.6046,-5.612,0,0,0,0,0,0,-5.5664,-5.5679,-5.5712,-5.5729,-5.5741,-5.5833,-5.5771,-5.5769,-5.5791,-5.5785,-5.5802,-5.5802,-5.5791,-5.5859,-5.587,-5.5917,-5.5829,-5.6032,-5.6038,-5.6044,-5.6113,-5.6126,-5.6138,0,0,0,0,0,-5.5659,-5.573,-5.5714,-5.5726,-5.5783,-5.5836,-5.5843,-5.583,-5.5795,-5.5829,-5.5831,-5.5802,-5.5905,-5.5866,-5.5878,-5.5927,-5.6029,-5.6037,-5.6044,-5.6107,-5.6124,-5.6138,0,0,0,0,0,0,-5.5717,-5.5732,-5.5714,-5.5793,-5.5814,-5.5827,-5.5869,-5.5848,-5.5878,-5.587,-5.5852,-5.5856,-5.5926,-5.5932,-5.5889,-5.6012,-5.5961,-5.5971,-5.6006,-5.6021,-5.6033,-5.6031,-5.5833,0,0,0,0,0,-5.5739,-5.5782,-5.5792,-5.586,-5.5872,-5.5869,-5.5891,-5.588,-5.59,-5.5908,-5.5915,-5.5935,-5.5972,-5.5997,-5.6031,-5.6113,-5.6117,-5.6153,-5.6165,-5.6175,-5.6184,-5.623,-5.6247,-5.6072,-5.6072,-5.6071,0,0,-5.5785,-5.5798,-5.5826,-5.5872,-5.5887,-5.5931,-5.5876,-5.5925,-5.5957,-5.5915,-5.5977,-5.5983,-5.6004,-5.6079,-5.6112,-5.6086,-5.6234,-5.6185,-5.6193,-5.6196,-5.6239,-5.6256,-5.6271,-5.6077,-5.6076,-5.6075,0,0,-5.5891,-5.5905,-5.5965,-5.5981,-5.6005,-5.6003,-5.6018,-5.6035,-5.6038,-5.61,-5.607,-5.6107,-5.6171,-5.6188,-5.6205,-5.632,-5.6295,-5.6331,-5.6397,-5.6441,-5.6455,-5.6467,-5.651,-5.6525,-5.634,-5.634,-5.6341,0,-5.5944,-5.6011,-5.5997,-5.6049,-5.6071,-5.6036,-5.6096,-5.6112,-5.6146,-5.6161,-5.6132,-5.6214,-5.6225,-5.6304,-5.6332,-5.6346,-5.6363,-5.633,-5.6455,-5.6467,-5.6478,-5.6518,-5.6534,-5.6345,-5.6344,-5.6344,-5.6343,0,-5.6076,-5.6123,-5.6168,-5.6204,-5.623,-5.6285,-5.628,-5.6308,-5.6294,-5.6295,-5.636,-5.6373,-5.641,-5.6427,-5.6413,-5.6505,-5.6489,-5.6458,-5.6406,-5.6499,-5.6537,-5.6552,-5.6351,-5.635,-5.6348,-5.6347,0,0,-5.6219,-5.6249,-5.6266,-5.6282,-5.6307,-5.6342,-5.6396,-5.6435,-5.646,-5.6484,-5.6529,-5.6585,-5.6557,-5.6576,-5.6564,-5.6603,-5.6696,-5.6567,-5.6568,-5.6592,-5.6799,-5.6823,-5.6841,-5.6679,-5.6681,-5.6684,-5.6797,0,-5.6327,-5.6423,-5.6413,-5.6504,-5.6548,-5.6516,-5.6563,-5.6584,-5.6586,-5.6622,-5.6624,-5.6665,-5.6624,-5.6636,-5.6673,-5.6676,-5.6737,-5.6668,-5.672,-5.6722,-5.6718,-5.686,-5.6886,-5.6993,-5.6812,-5.6814,-5.6816,0,-5.6466,-5.6498,-5.6594,-5.6615,-5.6632,-5.6675,-5.671,-5.6746,-5.6768,-5.6767,-5.679,-5.6771,-5.6825,-5.6772,-5.6846,-5.68,-5.682,-5.6825,-5.6829,-5.6834,-5.6776,-5.6871,-5.7026,-5.7043,-5.6839,-5.6837,-5.6835,0,-5.6563,-5.663,-5.6697,-5.6712,-5.6736,-5.6768,-5.6779,-5.6798,-5.6823,-5.6853,-5.6868,-5.6903,-5.6923,-5.695,-5.6942,-5.6904,-5.7019,-5.6964,-5.7019,-5.702,-5.7045,-5.7044,-5.7208,-5.7057,-5.7057,-5.7056,-5.7056,0,-5.6685,-5.6746,-5.6741,-5.6782,-5.6849,-5.6837,-5.6903,-5.691,-5.6928,-5.6969,-5.6943,-5.6982,-5.6968,-5.7006,-5.7,-5.7063,-5.7071,-5.7072,-5.707,-5.7075,-5.7076,-5.7089,-5.7082,-5.7061,-5.706,-5.7059,-5.7058,0,-5.6805,-5.6805,-5.6876,-5.6894,-5.69,-5.6949,-5.6964,-5.7003,-5.7003,-5.7056,-5.7068,-5.7069,-5.7113,-5.7107,-5.7155,-5.7151,-5.723,-5.7218,-5.7224,-5.7221,-5.7277,-5.7273,-5.7457,-5.7481,-5.7313,-5.7315,-5.7316,0,-5.6884,-5.693,-5.6955,-5.6982,-5.6996,-5.704,-5.7065,-5.7054,-5.7082,-5.7112,-5.7147,-5.7189,-5.7222,-5.7294,-5.7298,-5.7335,-5.7324,-5.7386,-5.733,-5.7334,-5.7327,-5.7325,-5.733,-5.7398,-5.74,-5.7401,-5.7402,0,-5.7025,-5.7023,-5.7061,-5.71,-5.7132,-5.7162,-5.7188,-5.7211,-5.7203,-5.7235,-5.7281,-5.7307,-5.7358,-5.74,-5.7436,-5.7446,-5.7424,-5.742,-5.7435,-5.7442,-5.7444,-5.7445,-5.7256,-5.7416,-5.7415,-5.7414,-5.7413,-5.7412,-5.7127,-5.7168,-5.7192,-5.7236,-5.7256,-5.7282,-5.732,-5.7327,-5.7365,-5.7407,-5.7398,-5.745,-5.7472,-5.7518,-5.7532,-5.7572,-5.7549,-5.757,-5.7576,-5.7582,-5.7589,-5.7437,-5.7578,-5.7578,-5.7577,-5.7577,-5.7577,0,-5.7268,-5.7282,-5.7323,-5.7363,-5.7398,-5.7375,-5.7404,-5.7435,-5.7482,-5.7505,-5.7539,-5.7592,-5.7633,-5.7642,-5.7681,-5.7712,-5.7702,-5.7722,-5.7721,-5.7724,-5.7607,-5.7591,-5.7729,-5.7729,-5.7729,-5.7729,-5.7729,-5.7729,-5.7345,-5.7413,-5.7414,-5.7492,-5.7505,-5.7558,-5.7577,-5.7601,-5.7619,-5.7681,-5.7716,-5.7722,-5.7739,-5.778,-5.7817,-5.7818,-5.7834,-5.7859,-5.7856,-5.7747,-5.7732,-5.7717,-5.7702,-5.7862,-5.7862,-5.797,-5.7971,-5.7972]}]]